IW0GZ Weather Reports


time (UTC)temp
C
wind
direction
speed
KPH
gust
KPH
rain 1hr
cm
rain 24hr
cm
rain mn
cm
humidity
%
barometer
mb
20260906083003 28 208 0.0 3.2 0.00 0.00 0.00 67 1023.2
20260906082003 27 92 1.6 4.8 0.00 0.00 0.00 67 1023.2
20260906081004 27 85 1.6 4.8 0.00 0.00 0.00 67 1023.2
20260906080214 26 75 1.6 4.8 0.00 0.00 0.00 68 1023.2
20260906075215 26 24 3.2 6.4 0.00 0.00 0.00 69 1023.1
20260906074004 26 70 1.6 6.4 0.00 0.00 0.00 71 1023.2
20260906073217 25 9 1.6 4.8 0.00 0.00 0.00 71 1023.2
20260906072003 25 33 1.6 4.8 0.00 0.00 0.00 72 1023.1
20260906071003 23 19 1.6 4.8 0.00 0.00 0.00 74 1023.0
20260906070004 23 78 3.2 6.4 0.00 0.00 0.00 76 1022.9
20260906065004 23 48 4.8 8.0 0.00 0.00 0.00 77 1022.9
20260906064003 22 28 4.8 9.7 0.00 0.00 0.00 78 1022.9
20260906063003 22 40 4.8 11.3 0.00 0.00 0.00 79 1022.9
20260906062003 22 31 4.8 9.7 0.00 0.00 0.00 80 1022.8
20260906061003 22 38 4.8 11.3 0.00 0.00 0.00 82 1022.8
20260906060004 21 42 3.2 8.0 0.00 0.00 0.00 83 1022.8
20260906055003 21 39 4.8 9.7 0.00 0.00 0.00 83 1022.8
20260906054003 21 30 4.8 9.7 0.00 0.00 0.00 84 1022.7
20260906053003 21 22 4.8 11.3 0.00 0.00 0.00 84 1022.6
20260906052004 21 26 4.8 9.7 0.00 0.00 0.00 84 1022.6
20260906051004 20 29 3.2 8.0 0.00 0.00 0.00 85 1022.5
20260906050216 20 30 3.2 8.0 0.00 0.00 0.00 85 1022.5
20260906045217 20 42 4.8 6.4 0.00 0.00 0.00 86 1022.4
20260906044003 20 24 3.2 9.7 0.00 0.00 0.00 86 1022.3
20260906043003 20 27 3.2 4.8 0.00 0.00 0.00 86 1022.2
20260906042215 20 25 3.2 6.4 0.00 0.00 0.00 85 1022.2
20260906041216 20 22 3.2 4.8 0.00 0.00 0.00 85 1022.2
20260906040217 20 23 3.2 6.4 0.00 0.00 0.00 85 1022.2
20260906035003 20 25 3.2 6.4 0.00 0.00 0.00 85 1022.1
20260906034004 20 35 3.2 6.4 0.00 0.00 0.00 85 1022.0
20260906033004 20 30 3.2 6.4 0.00 0.00 0.00 84 1021.9
20260906032003 21 15 3.2 8.0 0.00 0.00 0.00 84 1022.0
20260906031003 20 23 3.2 6.4 0.00 0.00 0.00 85 1022.0
20260906030003 20 33 3.2 6.4 0.00 0.00 0.00 85 1022.1
20260906025004 21 35 3.2 4.8 0.00 0.00 0.00 84 1022.0
20260906024003 21 28 3.2 6.4 0.00 0.00 0.00 83 1022.2
20260906023003 21 25 3.2 6.4 0.00 0.00 0.00 83 1022.3
20260906022003 21 26 3.2 8.0 0.00 0.00 0.00 84 1022.1
20260906021003 21 32 3.2 6.4 0.00 0.00 0.00 84 1022.1
20260906020004 21 36 3.2 6.4 0.00 0.00 0.00 84 1022.0
20260906015214 21 48 3.2 6.4 0.00 0.00 0.00 83 1022.0
20260906014215 21 44 1.6 6.4 0.00 0.00 0.00 83 1022.1
20260906013003 21 14 1.6 4.8 0.00 0.00 0.00 81 1022.2
20260906012003 22 62 0.0 4.8 0.00 0.00 0.00 81 1022.2
20260906011003 22 64 0.0 3.2 0.00 0.00 0.00 79 1022.3
20260906010005 22 0 0.0 0.0 0.00 0.00 0.00 80 1022.2
20260906005003 22 0 0.0 0.0 0.00 0.00 0.00 80 1022.2
20260906004003 22 0 0.0 0.0 0.00 0.00 0.00 80 1022.1
20260906003003 22 0 0.0 0.0 0.00 0.00 0.00 78 1022.1
20260906002003 22 77 0.0 1.6 0.00 0.00 0.00 78 1022.1
20260906001003 22 76 1.6 4.8 0.00 0.00 0.00 80 1022.2
20260906000003 22 76 0.0 4.8 0.00 0.00 0.00 80 1022.2
20260905235215 22 0 0.0 0.0 0.00 0.00 0.00 81 1022.4
20260905234216 23 0 0.0 0.0 0.00 0.00 0.00 82 1022.5
20260905233004 23 0 0.0 0.0 0.00 0.00 0.00 79 1022.4
20260905232004 24 0 0.0 0.0 0.00 0.00 0.00 78 1022.5
20260905230004 25 79 0.0 3.2 0.00 0.00 0.00 77 1022.4
20260905225003 25 90 0.0 1.6 0.00 0.00 0.00 77 1022.4
20260905224003 25 0 0.0 0.0 0.00 0.00 0.00 77 1022.4
20260905223003 25 0 0.0 0.0 0.00 0.00 0.00 77 1022.4
20260905222004 25 0 0.0 0.0 0.00 0.00 0.00 77 1022.4
20260905221004 25 0 0.0 0.0 0.00 0.00 0.00 78 1022.5
20260905220215 25 99 1.6 1.6 0.00 0.00 0.00 78 1022.5
20260905215003 25 104 1.6 4.8 0.00 0.00 0.00 78 1022.5
20260905214003 25 105 0.0 4.8 0.00 0.00 0.00 78 1022.4
20260905213003 25 0 1.6 0.0 0.00 0.00 0.00 77 1022.4
20260905212003 26 145 0.0 3.2 0.00 0.00 0.00 75 1022.2
20260905211215 26 166 0.0 3.2 0.00 0.00 0.00 75 1022.2
20260905210216 26 224 0.0 3.2 0.00 0.00 0.00 76 1022.2
20260905205003 26 155 1.6 3.2 0.00 0.00 0.00 76 1022.2
20260905204004 26 152 3.2 4.8 0.00 0.00 0.00 77 1022.3
20260905203003 26 150 1.6 6.4 0.00 0.00 0.00 77 1022.1
20260905202214 26 151 1.6 6.4 0.00 0.00 0.00 77 1022.2
20260905201003 26 145 0.0 3.2 0.00 0.00 0.00 77 1022.1
20260905200217 26 230 1.6 4.8 0.00 0.00 0.00 77 1022.2
20260905195004 26 247 0.0 4.8 0.00 0.00 0.00 77 1022.3
20260905194003 26 229 0.0 3.2 0.00 0.00 0.00 78 1022.2
20260905193003 26 300 0.0 3.2 0.00 0.00 0.00 78 1022.1
20260905192215 26 239 3.2 4.8 0.00 0.00 0.00 77 1021.9
20260905191004 26 247 6.4 12.9 0.00 0.00 0.00 77 1021.8
20260905190004 26 245 6.4 16.1 0.00 0.00 0.00 77 1021.6
20260905185004 26 246 8.0 12.9 0.00 0.00 0.00 76 1021.6
20260905184003 26 247 6.4 16.1 0.00 0.00 0.00 75 1021.7
20260905183003 26 240 4.8 9.7 0.00 0.00 0.00 73 1021.5
20260905182004 27 245 4.8 11.3 0.00 0.00 0.00 71 1021.5
20260905181004 27 248 6.4 12.9 0.00 0.00 0.00 69 1021.2
20260905180003 27 253 6.4 14.5 0.00 0.00 0.00 65 1021.1
20260905175003 27 247 4.8 11.3 0.00 0.00 0.00 62 1021.0
20260905174003 28 239 3.2 14.5 0.00 0.00 0.00 59 1020.8
20260905173004 28 236 4.8 11.3 0.00 0.00 0.00 57 1020.7
20260905172003 29 234 4.8 14.5 0.00 0.00 0.00 55 1020.7
20260905171003 30 254 3.2 17.7 0.00 0.00 0.00 53 1020.7
20260905170004 31 243 4.8 17.7 0.00 0.00 0.00 52 1020.5
20260905165003 31 240 4.8 9.7 0.00 0.00 0.00 50 1020.5
20260905164003 31 239 3.2 16.1 0.00 0.00 0.00 48 1020.5
20260905163003 32 249 3.2 9.7 0.00 0.00 0.00 45 1020.6
20260905162003 32 231 4.8 12.9 0.00 0.00 0.00 45 1020.5
20260905161003 32 240 4.8 16.1 0.00 0.00 0.00 44 1020.4
20260905160003 32 221 6.4 17.7 0.00 0.00 0.00 45 1020.3
20260905155003 32 232 4.8 16.1 0.00 0.00 0.00 46 1020.4
20260905154003 32 215 6.4 14.5 0.00 0.00 0.00 47 1020.3
20260905153003 32 247 11.3 19.3 0.00 0.00 0.00 47 1020.3
20260905152003 32 247 8.0 22.5 0.00 0.00 0.00 47 1020.3
20260905151003 32 239 6.4 19.3 0.00 0.00 0.00 46 1020.4
20260905150004 33 243 8.0 16.1 0.00 0.00 0.00 45 1020.4
20260905145215 33 239 6.4 17.7 0.00 0.00 0.00 44 1020.4
20260905144004 33 227 6.4 14.5 0.00 0.00 0.00 42 1020.5
20260905143003 33 222 8.0 12.9 0.00 0.00 0.00 43 1020.5
20260905142213 33 250 12.9 25.7 0.00 0.00 0.00 42 1020.5
20260905141004 33 252 12.9 24.1 0.00 0.00 0.00 42 1020.5
20260905140004 33 253 11.3 22.5 0.00 0.00 0.00 39 1020.6
20260905135003 34 252 6.4 22.5 0.00 0.00 0.00 36 1020.6
20260905134217 35 232 8.0 16.1 0.00 0.00 0.00 34 1020.7
20260905133003 34 249 6.4 19.3 0.00 0.00 0.00 34 1020.6
20260905132003 34 232 9.7 17.7 0.00 0.00 0.00 35 1020.8
20260905131003 34 252 8.0 20.9 0.00 0.00 0.00 33 1020.7
20260905130004 35 250 8.0 24.1 0.00 0.00 0.00 32 1020.8
20260905125003 35 244 4.8 12.9 0.00 0.00 0.00 32 1020.9
20260905124004 34 233 6.4 17.7 0.00 0.00 0.00 33 1020.9
20260905123003 34 258 8.0 17.7 0.00 0.00 0.00 33 1020.9
20260905122004 35 220 4.8 14.5 0.00 0.00 0.00 30 1021.0
20260905121216 35 202 4.8 14.5 0.00 0.00 0.00 30 1021.1
20260905120003 35 177 4.8 9.7 0.00 0.00 0.00 30 1021.2
20260905115003 34 213 3.2 12.9 0.00 0.00 0.00 29 1021.2
20260905114004 34 220 4.8 11.3 0.00 0.00 0.00 27 1021.3
20260905113003 33 218 4.8 14.5 0.00 0.00 0.00 29 1021.4
20260905112003 33 234 8.0 16.1 0.00 0.00 0.00 29 1021.5
20260905111003 33 242 6.4 17.7 0.00 0.00 0.00 31 1021.5
20260905110004 33 237 3.2 16.1 0.00 0.00 0.00 33 1021.5
20260905105003 33 215 3.2 9.7 0.00 0.00 0.00 30 1021.5
20260905104214 33 236 4.8 12.9 0.00 0.00 0.00 32 1021.5
20260905102003 32 223 4.8 17.7 0.00 0.00 0.00 34 1021.6
20260905101217 32 241 4.8 12.9 0.00 0.00 0.00 36 1021.7
20260905100004 32 177 4.8 11.3 0.00 0.00 0.00 37 1021.7
20260905095003 31 246 3.2 9.7 0.00 0.00 0.00 40 1021.8
20260905094214 31 275 3.2 9.7 0.00 0.00 0.00 43 1021.9
20260905093003 30 276 3.2 8.0 0.00 0.00 0.00 45 1021.9
20260905092004 30 290 3.2 6.4 0.00 0.00 0.00 46 1022.0
20260905091004 30 262 3.2 6.4 0.00 0.00 0.00 46 1022.0
20260905090003 30 258 1.6 8.0 0.00 0.00 0.00 47 1021.8
20260905085003 30 226 0.0 3.2 0.00 0.00 0.00 48 1021.7
20260905084003 28 242 1.6 3.2 0.00 0.00 0.00 50 1021.9